Preview of NWS' New Version of Forecast
This preview is not operational and should not be used for support decisions.
Latest weather observations around

Chino, Chino Airport (KCNO)

Using English Units (Switch to International System of Units)
Date/ Time (PST) Wind (mph) Vis. (mi) Weather Sky Cond. Temp (°F) Rel. Humidity Wind Chill (°F) Heat Index (°F) Pressure Precip. (in)
Air Dwpt 6 hour Altimeter (inHg) Sea level (inHg) 1 hr 3 hr 6 hr
Max Min
Feb 17 09:53 SW 3 10 Mostly Clear FEW050 48 40     73% 47   30.1 30.1      
Feb 17 08:53 3 10 Mostly Clear FEW050 47 41     80% 46   30.1 30.1      
Feb 17 07:53 NNE 5 10 Mostly Clear FEW040 42 39     89% 39   30.09 30.09      
Feb 17 06:53 Calm 10 Mostly Clear FEW040 38 37     97%     30.07 30.07      
Feb 17 05:53 N 3 8 Clear CLR 38 38     100% 36   30.07 30.07      
Feb 17 04:53 ENE 3 9 Clear CLR 41 38     89% 39   30.05 30.05      
Feb 17 03:53 W 9 9 Clear CLR 41 37     86% 35   30.05 30.05      
Feb 17 02:53 WSW 9 9 Clear CLR 39 37     93% 33   30.05 30.05      
Feb 17 01:53 WSW 6 9 Clear CLR 40 37     89% 36   30.07 30.07      
Feb 17 00:53 SW 7 8 Clear CLR 42 40     92% 38   30.07 30.06      
Feb 16 23:53 WSW 8 8 Clear CLR 43 41     93% 38   30.08 30.08      
Feb 16 22:53 WSW 8 8 Clear CLR 43 41     93% 38   30.08 30.08      
Feb 16 21:53 WSW 9 8 Clear   45 43     93% 40   30.08 30.08      
Feb 16 20:53 WSW 8 10 Clear CLR 45 43     93% 41   30.08 30.08      
Feb 16 19:53 WSW 7 10 Clear CLR 47 44     90% 44   30.08 30.09      
Feb 16 18:53 WSW 10 10 Clear CLR 49 41     74% 45   30.08 30.08      
Feb 16 17:53 WSW 14 10 Partly Cloudy SCT070 50 39     66%     30.07 30.07      
Feb 16 16:53 WSW 11 10 Partly Cloudy SCT065 53 39     59%     30.06 30.06      
Feb 16 15:53 WSW 13 10 Partly Cloudy SCT065 56 37     49%     30.06 30.05      
Feb 16 14:53 WSW 13 10 Partly Cloudy SCT060 57 36     45%     30.05 30.04      
Feb 16 13:53 SW 10 10 Partly Cloudy SCT060 57 36     45%     30.06 30.06      
Feb 16 12:53 W 8 10 Partly Cloudy SCT060 56 37     49%     30.1 30.09      
Feb 16 11:53 W 9 10 Partly Cloudy SCT050 54 40     59%     30.13 30.13      
Feb 16 10:53 NW 3 10 Partly Cloudy SCT050 52 40     63%     30.16 30.16      
Feb 16 09:53 Calm 10 Partly Cloudy SCT025 50 43     77%     30.16 30.16      
Feb 16 08:53 Calm 10 Partly Cloudy SCT025 47 44     90%     30.16 30.16      
Feb 16 07:53 SW 3 10 Mostly Clear FEW020 45 43     93% 44   30.15 30.15      
Feb 16 06:53 Calm 10 Partly Cloudy SCT018 42 42     100%     30.14 30.14      
Feb 16 05:53 Calm 8 Clear CLR 43 42     97%     30.12 30.12      
Feb 16 05:27 SSW 7 8 Partly Cloudy SCT018 43 42     97% 39   30.11        
Feb 16 04:53 Calm 8 Cloudy OVC016 46 45     96%     30.1 30.1      
Feb 16 03:53 Calm 8 Mostly Cloudy BKN018 BKN023 45 45     100%     30.08 30.08     0
Feb 16 03:31 Calm 8 Mostly Clear FEW023 44 44     100%     30.08        
Feb 16 03:22 W 3 8 Mostly Cloudy BKN023 44 44     100% 43   30.07        
Feb 16 02:53 W 6 9 Mostly Clear FEW027 44 43     96% 41   30.07 30.07      
Feb 16 01:53 WSW 8 9 Mostly Cloudy BKN038 46 45     96% 42   30.07 30.07      
Feb 16 01:39 WSW 8 9 Cloudy SCT029 OVC036 47 46     97% 43   30.08        
Feb 16 00:53 WSW 6 9 Cloudy FEW018 BKN025 OVC080 46 46     100% 43   30.1 30.09   0  
Feb 16 00:27 W 8 9 Cloudy BKN025 OVC034 47 46     97% 43   30.09        
Feb 15 23:53 W 8 9 Cloudy BKN048 OVC055 48 46     93% 44   30.09 30.09 0    
Feb 15 22:53 W 7 8 Cloudy FEW020 BKN050 OVC070 49 47     93% 46   30.1 30.09      
Feb 15 22:43 W 7 8 Cloudy SCT017 OVC050 48 48     100% 45   30.1        
Feb 15 22:23 W 7 9 Cloudy BKN018 BKN023 OVC048 49 48     97% 46   30.1        
Feb 15 21:53 W 8 9 Mostly Cloudy SCT050 BKN065 BKN090 48 47     96% 44   30.1 30.09 0   0
Feb 15 20:53 WSW 10 10 Cloudy SCT012 OVC031 49 48     97% 45   30.09 30.09 0    
Feb 15 19:53 WSW 8 4 Light Rain and Fog/Mist SCT018 OVC031 49 49     100% 45   30.08 30.08 0    
Feb 15 18:53 WSW 7 7 Light Rain SCT020 BKN031 OVC040 50 49     96%     30.08 30.08 0 0  
Feb 15 17:53 W 9 10 Cloudy FEW022 BKN037 OVC045 50 47     89%     30.07 30.07 0    
Feb 15 16:53 SSW 10 10 Mostly Cloudy SCT033 BKN060 BKN070 53 46     77%     30.07 30.07 0    
Feb 15 15:53 WSW 9 8 Light Rain SCT033 BKN042 OVC049 53 45     74%     30.08 30.08 0   0
Feb 15 14:53 SW 13 10 Cloudy SCT038 BKN055 OVC070 55 44     66%     30.08 30.08      
Feb 15 13:53 WSW 11 10 Cloudy BKN050 OVC070 55 44     66%     30.09 30.09      
Feb 15 12:53 SSW 13 10 Mostly Cloudy FEW043 BKN060 BKN070 56 43     62%     30.11 30.11      
Feb 15 11:53 WSW 11 10 Mostly Cloudy BKN038 BKN055 57 44     62%     30.13 30.13      
Feb 15 10:53 WSW 8 10 Mostly Cloudy FEW028 SCT034 BKN044 56 44     64%     30.13 30.13      
Feb 15 09:53 Calm 10 Fog/Mist SCT040 BKN055 54 50     86%     30.14 30.13      
Feb 15 08:53 Calm 6 Fog/Mist FEW030 SCT045 BKN050 50 49     96%     30.13 30.13      
Feb 15 07:53 Calm 6 Fog/Mist FEW005 SCT023 BKN050 47 47     100%     30.12 30.12      
Feb 15 07:23 ESE 3 3 Fog/Mist SCT021 BKN045 44 44     100% 43   30.1        
Feb 15 07:00 Calm 0.25 Fog SCT019 BKN045 44 44     100%     30.11        
Feb 15 06:53 Calm 0.25 Fog BKN019 BKN045 43 43     100%     30.11 30.1      
Feb 15 06:48 Calm 0.25 Fog SCT018 BKN045 43 43     100%     30.11        
Feb 15 06:41 Calm 0.75 Fog/Mist SCT018 BKN044 43 43     100%     30.11        
Feb 15 06:30 Calm 2 Fog/Mist SCT018 SCT044 43 43     100%     30.1        
Feb 15 06:23 Calm 1 Fog/Mist VV018 44 44     100%     30.09        
Feb 15 05:53 W 3 0.25 Fog BKN019 OVC039 42 42     100% 40   30.08 30.08      
Feb 15 05:36 Calm 0.25 Fog BKN028 BKN040 42 42     100%     30.07        
Feb 15 05:33 Calm 0.75 Fog/Mist BKN034 BKN040 42 42     100%     30.08        
Feb 15 05:21 Calm 2.5 Fog/Mist SCT029 OVC034 44 44     100%     30.07        
Feb 15 04:53 ESE 3 3 Fog/Mist OVC027 45 45     100% 44   30.06 30.06      
Feb 15 04:46 Calm 3 Fog/Mist OVC025 45 45     100%     30.06        
Feb 15 04:40 Calm 1.5 Fog/Mist BKN025 OVC029 45 45     100%     30.07        
Feb 15 04:29 N 3 1.75 Fog/Mist OVC031 44 44     100% 43   30.07        
Feb 15 04:26 N 3 3 Fog/Mist OVC033 44 44     100% 43   30.06        
Feb 15 04:22 Calm 1 Fog/Mist OVC033 45 45     100%     30.06        
Feb 15 04:15 Calm 0.5 Fog OVC034 43 43     100%     30.06        
Feb 15 04:05 Calm 0.75 Fog/Mist FEW018 OVC034 43 43     100%     30.06        
Feb 15 03:53 Calm 6 Fog/Mist SCT018 OVC030 45 45     100%     30.04 30.04      
Feb 15 03:44 Calm 3 Fog/Mist BKN017 OVC028 45 45     100%     30.05        
Feb 15 03:32 Calm 1.5 Fog/Mist BKN017 OVC028 44 44     100%     30.05        
Feb 15 03:25 Calm 3 Fog/Mist SCT019 BKN029 45 45     100%     30.04        
Feb 15 03:20 Calm 1.75 Fog/Mist FEW017 BKN027 45 45     100%     30.04        
Feb 15 03:13 Calm 1.75 Fog/Mist SCT027 45 45     100%     30.04        
Feb 15 03:06 Calm 5 Fog/Mist FEW029 45 45     100%     30.04        
Feb 15 02:53 Calm 2 Fog/Mist FEW025 45 45     100%     30.03 30.03      
Feb 15 02:51 Calm 2 Fog/Mist FEW025 45 45     100%     30.03        
Feb 15 02:40 Calm 5 Fog/Mist SCT027 47 47     100%     30.04        
Feb 15 01:53 Calm 5 Fog/Mist OVC028 47 47     100%     30.04 30.03      
Feb 15 01:12 Calm 6 Fog/Mist SCT018 BKN027 OVC042 47 47     100%     30.04        
Feb 15 00:53 SE 3 6 Fog/Mist FEW029 OVC039 47 47     100% 46   30.04 30.03      
Feb 14 23:53 Calm 6 Fog/Mist FEW028 OVC038 47 47     100%     30.04 30.03      
Feb 14 23:18 Calm 7 Mostly Cloudy BKN022 BKN027 48 48     100%     30.03        
Feb 14 22:53 NNW 5 7 Clear CLR 47 47     100% 45   30.03 30.02      
Feb 14 21:53 NW 6 7 Clear CLR 47 47     100% 44   30.02 30.02     0
Feb 14 20:53 SW 6 8 Clear CLR 50 48     93%     30 30      
Feb 14 19:53 SW 5 9 Mostly Cloudy BKN060 50 47     89%     29.97 29.96      
Feb 14 19:01 WSW 15 9 Cloudy FEW017 SCT032 OVC049 52 48     86%     29.93        
Feb 14 18:53 WSW 11 8 Cloudy SCT017 BKN026 OVC055 53 51     93%     29.93 29.93 0 0  
Feb 14 17:53 SW 14 7 Mostly Cloudy SCT020 BKN033 53 50     89%     29.87 29.86      
Feb 14 16:53 SW 11 8 Cloudy FEW019 BKN033 OVC070 55 51     86%     29.85 29.84      
Feb 14 15:53 SW 16 9 Cloudy SCT020 BKN060 OVC080 56 53     90%     29.83 29.82 0   1
Feb 14 14:53 WSW 15 8 Cloudy FEW020 BKN035 OVC065 56 54     93%     29.81 29.81 0    
Feb 14 13:53 WSW 13 8 Light Rain BKN021 BKN042 OVC055 57 55     93%     29.82 29.82 0    
Feb 14 12:53 WSW 21 4 Light Rain and Fog/Mist BKN019 BKN042 OVC095 57 57     100%     29.81 29.8 0 1  
Feb 14 12:05 WSW 17 0.75 Heavy Rain and Fog/Mist BKN008 OVC015 59 59     100%     29.77   0    
Feb 14 11:55 SW 17 0.75 Heavy Rain and Fog/Mist BKN008 OVC015 59 59     100%     29.77   0    
Feb 14 11:53 SW 18 0.5 Rain and Fog BKN008 OVC013 59 59     100%     29.77 29.77 0    
Feb 14 11:51 SW 16 0.5 Rain and Fog BKN008 OVC013 57 57     100%     29.76   0    
Feb 14 11:46 WNW 6 0.75 Rain and Fog/Mist BKN008 OVC015 56 56     100%     29.77   0    
Feb 14 10:53 Calm 1.25 Heavy Rain and Fog/Mist OVC015 55 55     100%     29.79 29.79 0    
May 15 04:53 Calm 8 Clear CLR 53 48     83%     30 29.98      
May 12 10:53 SE 3 10 Cloudy BKN025 OVC035 61 51     70%     29.99 29.98     0
May 12 02:53 SW 7 9 Cloudy BKN023 OVC036 59 49     69%     29.89 29.88      
May 12 02:00 SW 5 10 Cloudy SCT025 OVC031 59 49     69%     29.89        
May 11 17:53 W 14 10 Cloudy OVC043 63 51     65%     29.82 29.81      
May 11 12:53 WNW 7 10 Cloudy OVC030 67 52     59%     29.87 29.85      
Jun 10 18:53 W 15 10 Mostly Cloudy FEW050 BKN200 68 53     59%     29.85 29.84      
Jun 09 20:53 WSW 9 10 Mostly Clear FEW018 67 59     76%     29.9 29.89      
Jun 09 19:53 WSW 11 10 Mostly Clear FEW040 70 59     68%     29.89 29.88      
Jun 09 15:53 SW 18 10 Mostly Clear FEW050 82 53     37%   81 29.88 29.87      
Jun 08 07:53 WSW 5 4 Haze OVC014 65 57     76%     30 29.99      
Jun 07 05:53 Calm 4 Haze OVC012 64 58     81%     29.93 29.92      
Jun 06 09:53 3 2.5 Haze OVC013 68 58     70%     29.96 29.94